Time,TemperatureF,DewpointF,PressureIn,WindDirection,WindDirectionDegrees,WindSpeedMPH,WindSpeedGustMPH,Humidity,HourlyPrecipIn,Conditions,Clouds,dailyrainin,SolarRadiationWatts/m^2,SoftwareType,DateUTC
2013-02-20 00:01:00,20.0,20.0,-100.00,SE,138,1.0,2.0,99,0.00,,,0.00,0.000000,,2013-02-20 07:01:00,
2013-02-20 00:32:00,20.0,19.0,-100.00,ESE,116,1.0,5.0,96,0.00,,,-99.99,0.000000,,2013-02-20 07:32:00,
2013-02-20 00:42:00,20.0,19.0,-100.00,ESE,116,1.0,5.0,96,0.00,,,-99.99,0.000000,,2013-02-20 07:42:00,
2013-02-20 00:52:00,20.0,19.0,-100.00,ESE,116,1.0,5.0,96,0.00,,,-99.99,0.000000,,2013-02-20 07:52:00,
2013-02-20 01:01:00,20.0,19.0,-100.00,ESE,116,1.0,5.0,96,0.00,,,-99.99,0.000000,,2013-02-20 08:01:00,
2013-02-20 01:22:00,20.0,18.0,-100.00,East,101,2.0,5.0,93,-99.99,,,0.00,0.000000,,2013-02-20 08:22:00,
2013-02-20 01:32:00,20.0,18.0,-100.00,East,101,2.0,5.0,93,-99.99,,,0.00,0.000000,,2013-02-20 08:32:00,
2013-02-20 01:42:00,20.0,18.0,-100.00,East,101,2.0,5.0,93,-99.99,,,0.00,0.000000,,2013-02-20 08:42:00,
2013-02-20 01:52:00,20.0,18.0,-100.00,East,101,2.0,5.0,93,-99.99,,,0.00,0.000000,,2013-02-20 08:52:00,
2013-02-20 02:01:00,20.0,18.0,-100.00,East,101,2.0,5.0,93,-99.99,,,0.00,0.000000,,2013-02-20 09:01:00,
2013-02-20 02:32:00,21.0,18.0,-100.00,ESE,118,1.0,6.0,88,0.00,,,0.00,0.000000,,2013-02-20 09:32:00,
2013-02-20 02:42:00,21.0,18.0,-100.00,ESE,118,1.0,6.0,88,0.00,,,0.00,0.000000,,2013-02-20 09:42:00,
2013-02-20 02:52:00,21.0,18.0,-100.00,ESE,118,1.0,6.0,88,0.00,,,0.00,0.000000,,2013-02-20 09:52:00,
2013-02-20 03:01:00,21.0,18.0,-100.00,ESE,118,1.0,6.0,88,0.00,,,0.00,0.000000,,2013-02-20 10:01:00,
2013-02-20 03:32:00,21.0,18.0,-100.00,South,173,1.0,4.0,88,-99.99,,,0.00,0.000000,,2013-02-20 10:32:00,
2013-02-20 03:42:00,21.0,18.0,-100.00,South,173,1.0,4.0,88,-99.99,,,0.00,0.000000,,2013-02-20 10:42:00,
2013-02-20 03:52:00,21.0,18.0,-100.00,South,173,1.0,4.0,88,-99.99,,,0.00,0.000000,,2013-02-20 10:52:00,
2013-02-20 04:01:00,21.0,18.0,-100.00,South,173,1.0,4.0,88,-99.99,,,0.00,0.000000,,2013-02-20 11:01:00,
2013-02-20 04:32:00,20.0,18.0,-100.00,ESE,102,2.0,3.0,91,-99.99,,,0.00,0.000000,,2013-02-20 11:32:00,
2013-02-20 04:42:00,20.0,18.0,-100.00,ESE,102,2.0,3.0,91,-99.99,,,0.00,0.000000,,2013-02-20 11:42:00,
2013-02-20 04:52:00,20.0,18.0,-100.00,ESE,102,2.0,3.0,91,-99.99,,,0.00,0.000000,,2013-02-20 11:52:00,
2013-02-20 05:01:00,20.0,18.0,-100.00,ESE,102,2.0,3.0,91,-99.99,,,0.00,0.000000,,2013-02-20 12:01:00,
2013-02-20 05:32:00,18.0,16.0,-100.00,SE,131,0.0,4.0,91,-99.99,,,0.00,0.000000,,2013-02-20 12:32:00,
2013-02-20 05:42:00,18.0,16.0,-100.00,SE,131,0.0,4.0,91,-99.99,,,0.00,0.000000,,2013-02-20 12:42:00,
2013-02-20 05:52:00,18.0,16.0,-100.00,SE,131,0.0,4.0,91,-99.99,,,0.00,0.000000,,2013-02-20 12:52:00,
2013-02-20 06:01:00,18.0,16.0,-100.00,SE,131,0.0,4.0,91,-99.99,,,0.00,0.000000,,2013-02-20 13:01:00,
2013-02-20 06:32:00,19.0,15.0,-100.00,ESE,105,2.0,4.0,85,0.00,,,0.00,0.000000,,2013-02-20 13:32:00,
2013-02-20 06:42:00,19.0,15.0,-100.00,ESE,105,2.0,4.0,85,0.00,,,0.00,0.000000,,2013-02-20 13:42:00,
2013-02-20 06:51:00,19.0,15.0,-100.00,ESE,105,2.0,4.0,85,0.00,,,0.00,0.000000,,2013-02-20 13:51:00,
2013-02-20 07:01:00,19.0,15.0,-100.00,ESE,105,2.0,4.0,85,0.00,,,0.00,0.000000,,2013-02-20 14:01:00,
2013-02-20 07:32:00,18.0,14.0,-100.00,SE,124,1.0,4.0,83,-99.99,,,0.00,0.000000,,2013-02-20 14:32:00,
2013-02-20 07:42:00,18.0,14.0,-100.00,SE,124,1.0,4.0,83,-99.99,,,0.00,0.000000,,2013-02-20 14:42:00,
2013-02-20 07:52:00,18.0,14.0,-100.00,SE,124,1.0,4.0,83,-99.99,,,0.00,0.000000,,2013-02-20 14:52:00,
2013-02-20 08:01:00,18.0,14.0,-100.00,SE,124,1.0,4.0,83,-99.99,,,0.00,0.000000,,2013-02-20 15:01:00,
2013-02-20 08:32:00,19.0,14.0,-100.00,SSE,162,2.0,4.0,81,0.00,,,0.00,7.000000,,2013-02-20 15:32:00,
2013-02-20 08:42:00,19.0,14.0,-100.00,SSE,162,2.0,4.0,81,0.00,,,0.00,7.000000,,2013-02-20 15:42:00,
2013-02-20 08:52:00,19.0,14.0,-100.00,SSE,162,2.0,4.0,81,0.00,,,0.00,7.000000,,2013-02-20 15:52:00,
2013-02-20 09:01:00,19.0,14.0,-100.00,SSE,162,2.0,4.0,81,0.00,,,0.00,7.000000,,2013-02-20 16:01:00,
2013-02-20 09:32:00,26.0,16.0,-100.00,SSE,150,1.0,6.0,65,0.00,,,-99.99,47.000000,,2013-02-20 16:32:00,
2013-02-20 09:42:00,26.0,16.0,-100.00,SSE,150,1.0,6.0,65,0.00,,,-99.99,47.000000,,2013-02-20 16:42:00,
2013-02-20 09:52:00,26.0,16.0,-100.00,SSE,150,1.0,6.0,65,0.00,,,-99.99,47.000000,,2013-02-20 16:52:00,
2013-02-20 10:01:00,26.0,16.0,-100.00,SSE,150,1.0,6.0,65,0.00,,,-99.99,47.000000,,2013-02-20 17:01:00,
2013-02-20 10:32:00,34.0,16.0,-100.00,SW,236,1.0,6.0,48,-99.99,,,0.00,151.000000,,2013-02-20 17:32:00,
2013-02-20 10:42:00,34.0,16.0,-100.00,SW,236,1.0,6.0,48,-99.99,,,0.00,151.000000,,2013-02-20 17:42:00,
2013-02-20 10:52:00,34.0,16.0,-100.00,SW,236,1.0,6.0,48,-99.99,,,0.00,151.000000,,2013-02-20 17:52:00,
2013-02-20 11:02:00,34.0,16.0,-100.00,SW,236,1.0,6.0,48,-99.99,,,0.00,151.000000,,2013-02-20 18:02:00,
2013-02-20 11:22:00,43.0,17.0,-100.00,West,261,2.0,7.0,35,-99.99,,,0.00,446.000000,,2013-02-20 18:22:00,
2013-02-20 11:32:00,43.0,17.0,-100.00,West,261,2.0,7.0,35,-99.99,,,0.00,446.000000,,2013-02-20 18:32:00,
2013-02-20 11:42:00,43.0,17.0,-100.00,West,261,2.0,7.0,35,-99.99,,,0.00,446.000000,,2013-02-20 18:42:00,
2013-02-20 11:52:00,43.0,17.0,-100.00,West,261,2.0,7.0,35,-99.99,,,0.00,446.000000,,2013-02-20 18:52:00,
2013-02-20 12:01:00,43.0,17.0,-100.00,West,261,2.0,7.0,35,-99.99,,,0.00,446.000000,,2013-02-20 19:01:00,
2013-02-20 12:32:00,39.0,19.0,-100.00,WSW,252,2.0,7.0,45,-99.99,,,0.01,432.000000,,2013-02-20 19:32:00,
2013-02-20 12:42:00,39.0,19.0,-100.00,WSW,252,2.0,7.0,45,-99.99,,,0.01,432.000000,,2013-02-20 19:42:00,
2013-02-20 12:52:00,39.0,19.0,-100.00,WSW,252,2.0,7.0,45,-99.99,,,0.01,432.000000,,2013-02-20 19:52:00,
2013-02-20 13:01:00,39.0,19.0,-100.00,WSW,252,2.0,7.0,45,-99.99,,,0.01,432.000000,,2013-02-20 20:01:00,
2013-02-20 13:31:00,40.0,17.0,-100.00,WNW,289,1.0,7.0,39,0.00,,,0.01,471.000000,,2013-02-20 20:31:00,
2013-02-20 13:41:00,40.0,17.0,-100.00,WNW,289,1.0,7.0,39,0.00,,,0.01,471.000000,,2013-02-20 20:41:00,
2013-02-20 13:51:00,40.0,17.0,-100.00,WNW,289,1.0,7.0,39,0.00,,,0.01,471.000000,,2013-02-20 20:51:00,
2013-02-20 14:01:00,40.0,17.0,-100.00,WNW,289,1.0,7.0,39,0.00,,,0.01,471.000000,,2013-02-20 21:01:00,
2013-02-20 14:32:00,39.0,23.0,-100.00,WSW,245,2.0,9.0,53,0.02,,,0.03,483.000000,,2013-02-20 21:32:00,
2013-02-20 14:42:00,39.0,23.0,-100.00,WSW,245,2.0,9.0,53,0.02,,,0.03,483.000000,,2013-02-20 21:42:00,
2013-02-20 14:52:00,39.0,23.0,-100.00,WSW,245,2.0,9.0,53,0.02,,,0.03,483.000000,,2013-02-20 21:52:00,
2013-02-20 15:01:00,39.0,23.0,-100.00,WSW,245,2.0,9.0,53,0.02,,,0.03,483.000000,,2013-02-20 22:01:00,
2013-02-20 15:31:00,35.0,23.0,-100.00,West,281,2.0,6.0,61,-99.99,,,0.04,399.000000,,2013-02-20 22:31:00,
2013-02-20 15:43:00,35.0,23.0,-100.00,West,281,2.0,6.0,61,-99.99,,,0.04,399.000000,,2013-02-20 22:43:00,
2013-02-20 15:51:00,35.0,23.0,-100.00,West,281,2.0,6.0,61,-99.99,,,0.04,399.000000,,2013-02-20 22:51:00,
2013-02-20 16:01:00,35.0,23.0,-100.00,West,281,2.0,6.0,61,-99.99,,,0.04,399.000000,,2013-02-20 23:01:00,
2013-02-20 16:22:00,33.0,25.0,-100.00,NNE,22,1.0,6.0,73,0.01,,,0.05,199.000000,,2013-02-20 23:22:00,
2013-02-20 16:32:00,33.0,25.0,-100.00,NNE,22,1.0,6.0,73,0.01,,,0.05,199.000000,,2013-02-20 23:32:00,
2013-02-20 16:42:00,33.0,25.0,-100.00,NNE,22,1.0,6.0,73,0.01,,,0.05,199.000000,,2013-02-20 23:42:00,
2013-02-20 16:52:00,33.0,25.0,-100.00,NNE,22,1.0,6.0,73,0.01,,,0.05,199.000000,,2013-02-20 23:52:00,
2013-02-20 17:02:00,33.0,25.0,-100.00,NNE,22,1.0,6.0,73,0.01,,,0.05,199.000000,,2013-02-21 00:02:00,
2013-02-20 17:22:00,28.0,24.0,-100.00,WSW,247,1.0,6.0,86,0.00,,,0.05,106.000000,,2013-02-21 00:22:00,
2013-02-20 17:32:00,28.0,24.0,-100.00,WSW,247,1.0,6.0,86,0.00,,,0.05,106.000000,,2013-02-21 00:32:00,
2013-02-20 17:42:00,28.0,24.0,-100.00,WSW,247,1.0,6.0,86,0.00,,,0.05,106.000000,,2013-02-21 00:42:00,
2013-02-20 17:52:00,28.0,24.0,-100.00,WSW,247,1.0,6.0,86,0.00,,,0.05,106.000000,,2013-02-21 00:52:00,
2013-02-20 18:01:00,28.0,24.0,-100.00,WSW,247,1.0,6.0,86,0.00,,,0.05,106.000000,,2013-02-21 01:01:00,
2013-02-20 18:21:00,26.0,24.0,-100.00,WNW,299,1.0,5.0,93,0.00,,,-99.99,13.000000,,2013-02-21 01:21:00,
2013-02-20 18:32:00,26.0,24.0,-100.00,WNW,299,1.0,5.0,93,0.00,,,-99.99,13.000000,,2013-02-21 01:32:00,
2013-02-20 18:42:00,26.0,24.0,-100.00,WNW,299,1.0,5.0,93,0.00,,,-99.99,13.000000,,2013-02-21 01:42:00,
2013-02-20 18:52:00,26.0,24.0,-100.00,WNW,299,1.0,5.0,93,0.00,,,-99.99,13.000000,,2013-02-21 01:52:00,
2013-02-20 19:01:00,26.0,24.0,-100.00,WNW,299,1.0,5.0,93,0.00,,,-99.99,13.000000,,2013-02-21 02:01:00,
2013-02-20 19:22:00,25.0,24.0,-100.00,East,95,1.0,5.0,97,0.00,,,0.05,0.000000,,2013-02-21 02:22:00,
2013-02-20 19:32:00,25.0,24.0,-100.00,East,95,1.0,5.0,97,0.00,,,0.05,0.000000,,2013-02-21 02:32:00,
2013-02-20 19:42:00,25.0,24.0,-100.00,East,95,1.0,5.0,97,0.00,,,0.05,0.000000,,2013-02-21 02:42:00,
2013-02-20 19:51:00,25.0,24.0,-100.00,East,95,1.0,5.0,97,0.00,,,0.05,0.000000,,2013-02-21 02:51:00,
2013-02-20 20:01:00,25.0,24.0,-100.00,East,95,1.0,5.0,97,0.00,,,0.05,0.000000,,2013-02-21 03:01:00,
2013-02-20 20:32:00,24.0,23.0,-100.00,NW,319,1.0,3.0,97,0.00,,,0.05,0.000000,,2013-02-21 03:32:00,
2013-02-20 20:42:00,24.0,23.0,-100.00,NW,319,1.0,3.0,97,0.00,,,0.05,0.000000,,2013-02-21 03:42:00,
2013-02-20 20:52:00,24.0,23.0,-100.00,NW,319,1.0,3.0,97,0.00,,,0.05,0.000000,,2013-02-21 03:52:00,
2013-02-20 21:01:00,24.0,23.0,-100.00,NW,319,1.0,3.0,97,0.00,,,0.05,0.000000,,2013-02-21 04:01:00,
2013-02-20 21:32:00,23.0,22.0,-100.00,WSW,255,1.0,3.0,97,0.00,,,0.05,0.000000,,2013-02-21 04:32:00,
2013-02-20 21:42:00,23.0,22.0,-100.00,WSW,255,1.0,3.0,97,0.00,,,0.05,0.000000,,2013-02-21 04:42:00,
2013-02-20 21:52:00,23.0,22.0,-100.00,WSW,255,1.0,3.0,97,0.00,,,0.05,0.000000,,2013-02-21 04:52:00,
2013-02-20 22:02:00,23.0,22.0,-100.00,WSW,255,1.0,3.0,97,0.00,,,0.05,0.000000,,2013-02-21 05:02:00,
2013-02-20 22:22:00,22.0,21.0,-100.00,West,274,1.0,3.0,97,0.00,,,0.05,0.000000,,2013-02-21 05:22:00,
2013-02-20 22:36:00,22.0,21.0,-100.00,West,274,1.0,3.0,97,0.00,,,0.05,0.000000,,2013-02-21 05:36:00,
2013-02-20 22:46:00,22.0,21.0,-100.00,West,274,1.0,3.0,97,0.00,,,0.05,0.000000,,2013-02-21 05:46:00,
2013-02-20 22:58:00,22.0,21.0,-100.00,West,274,1.0,3.0,97,0.00,,,0.05,0.000000,,2013-02-21 05:58:00,
2013-02-20 23:21:00,22.0,21.0,-100.00,WSW,245,1.0,4.0,97,0.00,,,0.05,0.000000,,2013-02-21 06:21:00,
2013-02-20 23:31:00,22.0,21.0,-100.00,WSW,245,1.0,4.0,97,0.00,,,0.05,0.000000,,2013-02-21 06:31:00,
2013-02-20 23:41:00,22.0,21.0,-100.00,WSW,245,1.0,4.0,97,0.00,,,0.05,0.000000,,2013-02-21 06:41:00,
2013-02-20 23:51:00,22.0,21.0,-100.00,WSW,245,1.0,4.0,97,0.00,,,0.05,0.000000,,2013-02-21 06:51:00,